Orange, MA

9:57 PM EST on December 07, 2019 (GMT -0500)
Orange Municipal

Weather History for KORE - October, 2019

Change the Weather History Date:

Sunday, October 20, 2019

  Actual Average Record
Temperature  
Mean Temperature 44 °F -  
Max Temperature 59 °F 55 °F 71 °F (2012)
Min Temperature 28 °F 32 °F 21 °F (2008)
Degree Days  
Heating Degree Days 22    
Moisture  
Dew Point 33 °F    
Average Humidity 83    
Maximum Humidity 92    
Minimum Humidity 47    
Precipitation  
Precipitation 0.03 in - - ()
Sea Level Pressure  
Sea Level Pressure 30.08 in    
Wind  
Wind Speed 1 mph ()    
Max Wind Speed 9 mph    
Max Gust Speed -    
Visibility 6.2 miles    
Events Fog , Rain    
Averages and records for this station are not official NWS values.
T = Trace of Precipitation, MM = Missing Value Source: Averaged Metar Reports

Daily Weather History Graph

Daily Weather History Graph

Search for Another Location

Airport or City:

Astronomy

Oct. 20, 2019 Rise Set
Actual Time 7:07 AM EDT 5:59 PM EDT
Civil Twilight 6:39 AM EDT 6:28 PM EDT
Nautical Twilight 6:06 AM EDT 7:00 PM EDT
Astronomical Twilight 5:33 AM EDT 7:33 PM EDT
Moon 11:00 PM EDT (10/20) 1:38 PM EDT (10/20)
Length of Visible Light 11h 48m
Length of Day
10h 51m
Waning Gibbous, 59% of the Moon is Illuminated
Oct 20
Waning Gibbous
Oct 21
Last Quarter
Oct 27
New
Nov 4
First Quarter
Nov 12
Full

Hourly Weather History & Observations

Time (EDT) Temp. Windchill Dew Point Humidity Pressure Visibility Wind Dir Wind Speed Gust Speed Precip Events Conditions
12:52 AM 34.0 °F - 32.0 °F 92% 30.08 in 10.0 mi Calm Calm - N/A   Clear
1:13 AM 33.1 °F - 30.9 °F 92% 30.06 in 1.8 mi Calm Calm - N/A   Clear
1:16 AM 33.1 °F - 30.9 °F 92% 30.06 in 1.0 mi Calm Calm - N/A   Clear
1:24 AM 33.1 °F 30.0 °F 30.0 °F 89% 30.06 in 1.5 mi NW 3.5 mph - N/A   Clear
1:27 AM 32.0 °F - 30.0 °F 92% 30.06 in 3.0 mi Calm Calm - N/A   Clear
1:52 AM 33.1 °F - 30.0 °F 89% 30.08 in 8.0 mi Calm Calm - N/A   Clear
2:52 AM 30.9 °F - 28.9 °F 92% 30.09 in 7.0 mi Calm Calm - N/A   Clear
3:00 AM 30.9 °F - 28.9 °F 92% 30.09 in 1.8 mi Calm Calm - N/A   Clear
3:14 AM 30.9 °F - 28.9 °F 92% 30.09 in 3.0 mi Calm Calm - N/A   Clear
3:52 AM 30.0 °F - 28.0 °F 92% 30.09 in 8.0 mi Calm Calm - N/A   Clear
4:52 AM 30.9 °F - 27.0 °F 85% 30.09 in 10.0 mi Calm Calm - N/A   Clear
5:27 AM 30.0 °F - 27.0 °F 88% 30.07 in 9.0 mi Calm Calm - N/A   Partly Cloudy
5:39 AM 30.0 °F - 27.0 °F 88% 30.08 in 1.0 mi Calm Calm - N/A   Mist
5:47 AM 30.2 °F - 26.6 °F 86% 30.08 in 1.8 mi Calm Calm - N/A   Scattered Clouds
5:49 AM 30.2 °F - 26.6 °F 86% 30.08 in 3.0 mi Calm Calm - N/A   Scattered Clouds
5:52 AM 30.0 °F - 27.0 °F 88% 30.10 in 1.8 mi Calm Calm - N/A   Scattered Clouds
5:55 AM 30.0 °F - 27.0 °F 88% 30.08 in 1.0 mi Calm Calm - N/A   Mist
6:02 AM 30.0 °F - 27.0 °F 88% 30.08 in 1.5 mi Calm Calm - N/A   Partly Cloudy
6:05 AM 30.0 °F - 27.0 °F 88% 30.08 in 3.0 mi Calm Calm - N/A   Partly Cloudy
6:12 AM 30.0 °F - 28.0 °F 92% 30.09 in 1.5 mi Calm Calm - N/A   Scattered Clouds
6:14 AM 30.0 °F - 28.0 °F 92% 30.09 in 1.0 mi Calm Calm - N/A   Mist
6:22 AM 30.0 °F - 27.0 °F 88% 30.08 in 0.5 mi Calm Calm - N/A Fog Light Freezing Fog
6:34 AM 28.9 °F - 26.1 °F 89% 30.09 in 1.2 mi Calm Calm - N/A   Scattered Clouds
6:37 AM 28.9 °F 25.2 °F 26.1 °F 89% 30.09 in 2.5 mi West 3.5 mph - N/A   Scattered Clouds
6:44 AM 30.0 °F - 28.0 °F 92% 30.08 in 7.0 mi Calm Calm - N/A   Partly Cloudy
6:52 AM 30.0 °F - 27.0 °F 88% 30.09 in 8.0 mi Calm Calm - N/A   Clear
7:47 AM 32.0 °F - 28.4 °F 87% 30.08 in 10.0 mi Calm Calm - N/A   Scattered Clouds
7:52 AM 32.0 °F - 30.0 °F 92% 30.09 in 10.0 mi Calm Calm - N/A   Partly Cloudy
8:52 AM 37.0 °F - 33.1 °F 86% 30.12 in 10.0 mi Calm Calm - N/A   Clear
9:52 AM 43.0 °F - 37.0 °F 80% 30.12 in 10.0 mi Calm Calm - N/A   Clear
10:52 AM 50.0 °F - 36.0 °F 59% 30.12 in 10.0 mi Calm Calm - N/A   Clear
11:52 AM 55.0 °F - 37.0 °F 51% 30.10 in 10.0 mi Calm Calm - N/A   Clear
12:52 PM 57.9 °F - 39.0 °F 49% 30.09 in 10.0 mi South 9.2 mph - N/A   Clear
1:52 PM 57.9 °F - 37.9 °F 47% 30.08 in 10.0 mi SSE 8.1 mph - N/A   Clear
2:52 PM 59.0 °F - 39.0 °F 48% 30.08 in 10.0 mi SW 5.8 mph - N/A   Clear
3:52 PM 57.9 °F - 42.1 °F 56% 30.08 in 10.0 mi SSW 4.6 mph - N/A   Mostly Cloudy
4:52 PM 57.0 °F - 44.1 °F 62% 30.07 in 10.0 mi Calm Calm - 0.00 in   Overcast
5:52 PM 52.0 °F - 48.0 °F 86% 30.06 in 10.0 mi Calm Calm - 0.00 in Rain Light Rain
6:52 PM 52.0 °F - 48.9 °F 89% 30.07 in 10.0 mi Calm Calm - 0.01 in Rain Light Rain
7:52 PM 51.1 °F - 48.9 °F 92% 30.08 in 8.0 mi Calm Calm - 0.00 in Rain Light Rain
8:52 PM 51.1 °F - 48.9 °F 92% 30.07 in 5.0 mi Calm Calm - 0.01 in Rain Light Rain
9:52 PM 51.1 °F - 46.9 °F 86% 30.08 in 10.0 mi Calm Calm - 0.00 in   Overcast
10:52 PM 51.1 °F - 48.0 °F 89% 30.07 in 9.0 mi NW 4.6 mph - 0.01 in   Overcast
11:52 PM 51.1 °F - 48.0 °F 89% 30.06 in 10.0 mi NNW 3.5 mph - N/A   Overcast